Wind From: 20-09-2018 10:00 Until: 20:00 warning for: Wind Level: Yellow info button
suomi:
Tuulivaroitus maa-alueille: Lounaistuuli on voimakasta iltapäivällä ja illalla, tuulen nopeus puuskissa 15 m/s.

svenska:
Vindvarning för landområden: På eftermiddagen och kvällen är den sydvästliga vinden kraftigt, i vindbyarna 15 m/s.

english:
Wind warning for land areas: In the afternoon and in the evening, strong winds from southwest may bring strong gusts of 15 m/s. 


Thunder radar more information blitzortung!


Löydät sääaseman tiedot myös:

European Weather Network

Finland Weather Exchange

Weather Underground

AWEKAS



Weather Underground säähistoriasivu

Päivittäin yhteenveto Lokakuu 2, 2017 Yksiköt:  Metriset    Englantilaiset   Molemmat
« Edellinen Päivä
Seuraava Päivä »
Päivittäin Viikoittain Kuukausittain Vuosittain Mukautettu
  Korkea: Matala: Keskiarvo:
Lämpötila: -17.8 °C -13.8 °C -13.3 °C
Kastepiste: -17.8 °C -15.4 °C -14.5 °C
Kosteus: Humidity % 78 % 85 %
Tuulen nopeus: 0 km/h 0 km/h 1.9 km/h
Tuulenpuuska: 0 km/h - -
Tuuli:- - SSE
Ilmanpaine: 0 hPa 34144.4 hPa -
Sade: 0 mm    
Historical Graphs
 
 
Taulukkotiedot Lokakuu 2, 2017
Aika Lämpötila Kastepiste Ilmanpaine Tuuli Tuulen nopeus Tuulenpuuska Kosteus Sademäärä (tunneittain)
-17.8 °C -17.8 °C 0 hPa Calm     Humidity % 0 mm
00:00 -13.7 °C -14.2 °C 34740.4 hPa Calm   5.1 km/h 95 % 0 mm
00:15 -13.7 °C -14.2 °C 34740.4 hPa Calm     95 % 0 mm
00:30 -13.8 °C -14.2 °C 34740.4 hPa Calm   2.6 km/h 95 % 0 mm
00:45 -13.8 °C -14.2 °C 34726.8 hPa Calm     95 % 0 mm
01:00 -13.8 °C -14.2 °C 34726.8 hPa Calm     95 % 0 mm
01:15 -13.8 °C -14.1 °C 34716.7 hPa Calm     96 % 0 mm
01:30 -13.7 °C -14.1 °C 34716.7 hPa Calm   5.1 km/h 96 % 0 mm
01:45 -13.7 °C -14 °C 34703.1 hPa Calm   12.9 km/h 96 % 0 mm
02:00 -13.6 °C -14 °C 34703.1 hPa South 2.6 km/h 10.3 km/h 95 % 0 mm
02:15 -13.5 °C -13.9 °C 34693 hPa Calm   15.6 km/h 95 % 0 mm
02:30 -13.4 °C -13.9 °C 34693 hPa South 2.6 km/h 15.6 km/h 94 % 0 mm
02:45 -13.4 °C -13.9 °C 34693 hPa South 2.6 km/h 15.6 km/h 93 % 0 mm
03:00 -13.3 °C -14 °C 34693 hPa South 2.6 km/h 15.6 km/h 92 % 0 mm
03:15 -13.3 °C -14 °C 34682.8 hPa South 2.6 km/h 18.2 km/h 92 % 0 mm
03:30 -13.3 °C -14 °C 34682.8 hPa South 2.6 km/h 18.2 km/h 92 % 0 mm
03:45 -13.4 °C -14.1 °C 34669.3 hPa SSE 2.6 km/h 12.9 km/h 92 % 0 mm
04:00 -13.4 °C -14.1 °C 34669.3 hPa SSE 2.6 km/h 25.9 km/h 92 % 0 mm
04:15 -13.5 °C -14.1 °C 34659.1 hPa SSE 2.6 km/h 25.9 km/h 93 % 0 mm
04:30 -13.5 °C -14.1 °C 34659.1 hPa SE 2.6 km/h 12.9 km/h 93 % 0 mm
04:45 -13.5 °C -14.2 °C 34645.6 hPa SSE 2.6 km/h 18.2 km/h 92 % 0 mm
05:00 -13.5 °C -14.2 °C 34645.6 hPa SSW 2.6 km/h 10.3 km/h 92 % 0 mm
05:15 -13.5 °C -14.2 °C 34635.4 hPa Calm   12.9 km/h 92 % 0 mm
05:30 -13.6 °C -14.3 °C 34625.2 hPa Calm   5.1 km/h 92 % 0 mm
05:45 -13.6 °C -14.3 °C 34625.2 hPa Calm   7.7 km/h 92 % 0 mm
06:00 -13.6 °C -14.3 °C 34611.7 hPa South 2.6 km/h 15.6 km/h 92 % 0 mm
06:15 -13.6 °C -14.3 °C 34611.7 hPa South 5.1 km/h 12.9 km/h 91 % 0 mm
06:30 -13.6 °C -14.3 °C 34601.5 hPa Calm   2.6 km/h 91 % 0 mm
06:45 -13.6 °C -14.3 °C 34591.4 hPa Calm   10.3 km/h 91 % 0 mm
07:00 -13.6 °C -14.4 °C 34577.8 hPa Calm   10.3 km/h 91 % 0 mm
07:15 -13.6 °C -14.4 °C 34567.7 hPa SSE 2.6 km/h 18.2 km/h 91 % 0 mm
07:30 -13.7 °C -14.4 °C 34567.7 hPa SE 2.6 km/h 20.8 km/h 91 % 0 mm
07:45 -13.7 °C -14.3 °C 34554.1 hPa SE 2.6 km/h 18.2 km/h 92 % 0 mm
08:00 -13.7 °C -14.4 °C 34554.1 hPa ESE 2.6 km/h 18.2 km/h 91 % 0 mm
08:15 -13.6 °C -14.4 °C 34554.1 hPa SSE 2.6 km/h 23.3 km/h 90 % 0 mm
08:30 -13.5 °C -14.4 °C 34544 hPa SSE 5.1 km/h 25.9 km/h 89 % 0 mm
08:45 -13.4 °C -14.3 °C 34544 hPa SSE 5.1 km/h 23.3 km/h 89 % 0 mm
09:00 -13.3 °C -14.3 °C 34544 hPa South 5.1 km/h 20.8 km/h 88 % 0 mm
09:15 -13.2 °C -14.3 °C 34544 hPa SSW 5.1 km/h 18.2 km/h 88 % 0 mm
09:30 -13.2 °C -14.3 °C 34533.8 hPa South 5.1 km/h 18.2 km/h 87 % 0 mm
09:45 -13.2 °C -14.3 °C 34520.3 hPa SSE 2.6 km/h 18.2 km/h 87 % 0 mm
10:00 -13.2 °C -14.2 °C 34510.1 hPa SSE 2.6 km/h 15.6 km/h 88 % 0 mm
10:15 -13.1 °C -14.2 °C 34510.1 hPa South 2.6 km/h 18.2 km/h 88 % 0 mm
10:30 -13.1 °C -14.2 °C 34496.6 hPa South 2.6 km/h 18.2 km/h 87 % 0 mm
10:45 -13 °C -14.2 °C 34496.6 hPa SSE 7.7 km/h 33.6 km/h 86 % 0 mm
11:00 -13 °C -14.3 °C 34486.4 hPa SSE 5.1 km/h 36.2 km/h 86 % 0 mm
11:15 -13 °C -14.3 °C 34486.4 hPa SSE 5.1 km/h 18.2 km/h 86 % 0 mm
11:30 -13 °C -14.1 °C 34462.7 hPa SE 5.1 km/h 23.3 km/h 87 % 0 mm
11:45 -12.9 °C -14.1 °C 34462.7 hPa SSE 5.1 km/h 28.5 km/h 87 % 0 mm
12:00 -12.8 °C -14 °C 34462.7 hPa SSE 2.6 km/h 20.8 km/h 86 % 0 mm
12:15 -12.7 °C -14.1 °C 34462.7 hPa SSE 2.6 km/h 23.3 km/h 84 % 0 mm
12:30 -12.6 °C -14.1 °C 34452.6 hPa SSE 5.1 km/h 20.8 km/h 83 % 0 mm
12:45 -12.6 °C -14.1 °C 34452.6 hPa SSE 7.7 km/h 38.8 km/h 83 % 0 mm
13:00 -12.5 °C -14 °C 34452.6 hPa SSE 5.1 km/h 25.9 km/h 83 % 0 mm
13:15 -12.5 °C -14 °C 34442.4 hPa SSE 5.1 km/h 20.8 km/h 83 % 0 mm
13:30 -12.4 °C -14.1 °C 34428.8 hPa South 10.3 km/h 31.1 km/h 82 % 0 mm
13:45 -12.5 °C -14.2 °C 34428.8 hPa SSE 7.7 km/h 31.1 km/h 81 % 0 mm
14:00 -12.5 °C -14.2 °C 34418.7 hPa SSE 10.3 km/h 31.1 km/h 81 % 0 mm
14:15 -12.5 °C -14.2 °C 34418.7 hPa SSE 7.7 km/h 49.2 km/h 81 % 0 mm
14:30 -12.5 °C -14.1 °C 34405.1 hPa SSE 5.1 km/h 36.2 km/h 82 % 0 mm
14:45 -12.5 °C -14.2 °C 34384.8 hPa Calm     81 % 0 mm
15:00 -12.4 °C -14.1 °C 34371.3 hPa Calm     82 % 0 mm
15:15 -12.4 °C -14.4 °C 34371.3 hPa Calm     79 % 0 mm
15:30 -12.5 °C -14.3 °C 34361.1 hPa Calm     80 % 0 mm
15:45 -12.5 °C -14.3 °C 34361.1 hPa Calm     80 % 0 mm
16:00 -12.6 °C -14.6 °C 34347.6 hPa Calm     79 % 0 mm
16:15 -12.7 °C -14.7 °C 34337.4 hPa Calm     78 % 0 mm
16:30 -12.7 °C -14.6 °C 34327.3 hPa Calm     79 % 0 mm
16:45 -12.7 °C -14.7 °C 34327.3 hPa Calm     79 % 0 mm
17:00 -12.8 °C -14.6 °C 34313.7 hPa Calm     80 % 0 mm
17:15 -12.9 °C -14.7 °C 34303.6 hPa Calm     80 % 0 mm
17:30 -12.9 °C -14.8 °C 34303.6 hPa Calm     79 % 0 mm
17:45 -12.9 °C -14.8 °C 34303.6 hPa Calm     79 % 0 mm
18:00 -12.9 °C -14.9 °C 34293.4 hPa Calm     79 % 0 mm
18:15 -13 °C -14.9 °C 34279.9 hPa Calm     79 % 0 mm
18:30 -13.1 °C -15 °C 34279.9 hPa Calm     79 % 0 mm
18:45 -13.2 °C -15.1 °C 34269.7 hPa Calm     79 % 0 mm
19:00 -13.2 °C -15.1 °C 34269.7 hPa Calm     79 % 0 mm
19:15 -13.2 °C -15 °C 34256.2 hPa Calm     80 % 0 mm
19:30 -13.2 °C -15.2 °C 34246 hPa Calm     79 % 0 mm
19:45 -13.3 °C -15.2 °C 34235.8 hPa Calm     79 % 0 mm
20:00 -13.3 °C -15.2 °C 34235.8 hPa Calm     79 % 0 mm
20:15 -13.4 °C -15.2 °C 34235.8 hPa Calm     80 % 0 mm
20:30 -13.4 °C -15.2 °C 34222.3 hPa Calm     80 % 0 mm
20:45 -13.4 °C -15.3 °C 34222.3 hPa Calm     79 % 0 mm
21:00 -13.5 °C -15.4 °C 34212.1 hPa Calm     79 % 0 mm
21:15 -13.6 °C -15.3 °C 34198.6 hPa Calm     80 % 0 mm
21:30 -13.6 °C -15.4 °C 34198.6 hPa Calm     80 % 0 mm
21:45 -13.6 °C -15.3 °C 34198.6 hPa Calm     81 % 0 mm
22:00 -13.5 °C -15.3 °C 34188.4 hPa Calm     80 % 0 mm
22:15 -13.5 °C -15.2 °C 34188.4 hPa Calm     81 % 0 mm
22:30 -13.4 °C -15.2 °C 34178.3 hPa Calm     81 % 0 mm
22:45 -13.4 °C -15.2 °C 34178.3 hPa Calm     81 % 0 mm
23:00 -13.4 °C -15.1 °C 34164.7 hPa Calm     82 % 0 mm
23:15 -13.4 °C -15 °C 34164.7 hPa Calm     82 % 0 mm
23:30 -13.4 °C -15.1 °C 34154.6 hPa Calm     82 % 0 mm
23:45 -13.4 °C -14.9 °C 34144.4 hPa Calm     83 % 0 mm
Esan sääasema
Terveisin Weather Underground - 2.75 mb

Alkuperäinen skripti  Jim McMurry - jmcmurry@mwt.net Sovitettu myös templatelle  Wim van der Kuil - Leuven-Template.eu

Laitteet joita käytämme:

Sääasema
Davis VP2

Sääasemaohjelma
Cumulus

Sääaseman tietokone
Asus EeePC

Palveluntarjoaja
Suncomet

Davis VP2

Cumulus

Asus EeePC

Suncomet